Location: Feydey
(46.3431°N, 7.0106°E)
Time: 05:50:18
(UTC+00:00)

Cosmos 1727 Rocket - Pass Details

Date: 20 June 2021
Orbit: 960 x 997 km, 82.9° (Epoch: 28 July)

Event Time Altitude Azimuth Distance (km) Brightness Sun altitude
Rises 20:25:56 0° 193° (SSW) 3,693 6.7 -8.3°
Reaches altitude 10° 20:28:28 10° 196° (SSW) 2,744 6.1 -8.6°
Maximum altitude 20:34:45 71° 280° (W) 1,040 4.4 -9.3°
Drops below altitude 10° 20:41:02 10° 5° (N) 2,738 7.1 -10.0°
Sets 20:43:34 0° 8° (N) 3,684 7.7 -10.3°
